Regional Weather Roundup
Issued by NWS

Home | Current Version | Previous Version | Graphics & Text | Print | Product List | Glossary Off
Versions: 1 2 3 4 5 6 7 8 9 10 11 12 13 14 15 16 17 18 19 20 21 22 23 24 25 26 27 28 29 30 31 32 33 34 35 36 37 38 39 40 41 42 43 44 45 46 47 48 49 50

000
ASUS43 KLSX 061657
RWRMO

WEATHER SUMMARY FOR MISSOURI
NATIONAL WEATHER SERVICE SPRINGFIELD MO
1200 PM CDT FRI MAY 06 2016

NOTE: "FAIR" INDICATES FEW OR NO CLOUDS BELOW 12,000 FEET WITH NO
       SIGNIFICANT WEATHER AND/OR OBSTRUCTIONS TO VISIBILITY.
       CURRENT SKY AND/OR WEATHER CONDITIONS ARE NOT AVAILABLE FOR
       CHILLICOTHE AND FARMINGTON.

MOZ001>031-035>038-043-044-053-054-061800-
...NORTHERN AND WESTERN MISSOURI...

CITY           SKY/WX    TMP DP  RH WIND       PRES   REMARKS
KANSAS CTY INT MOSUNNY   74  50  42 SW10      30.08S
LEE`S SUMMIT   SUNNY     74  45  35 SW12      30.10R
ST JOSEPH      SUNNY     77  50  38 SW12      30.05F
CHILLICOTHE      N/A     76  50  40 W5        30.07S

$$
MOZ066>068-077>081-088>096-101>105-061800-
...SOUTHWEST MISSOURI...

CITY           SKY/WX    TMP DP  RH WIND       PRES   REMARKS
SPRINGFIELD    SUNNY     73  38  27 N5        30.12S
JOPLIN         SUNNY     72  43  35 VRB6      30.13F
BRANSON        SUNNY     70  39  32 CALM      30.15R

$$
MOZ032>034-039>042-045>050-055>058-069>072-061800-
...CENTRAL MISSOURI...

CITY           SKY/WX    TMP DP  RH WIND       PRES   REMARKS
COLUMBIA       NOT AVBL
JEFFERSON CITY SUNNY     72  41  32 VRB3      30.08F
ROLLA          SUNNY     69  44  40 CALM      30.09S
SEDALIA        SUNNY     75  45  34 SW6       30.10S
WARRENSBURG    SUNNY     72  43  35 S7        30.09F

$$
MOZ051-052-059>065-061800-
...EAST CENTRAL MISSOURI...

CITY           SKY/WX    TMP DP  RH WIND       PRES   REMARKS
ST LOUIS INTL  SUNNY     74  39  28 W8        30.07F

$$
MOZ072>076-082>087-097>100-106>115-061800-
...SOUTH CENTRAL AND SOUTHEAST MISSOURI...

CITY           SKY/WX    TMP DP  RH WIND       PRES   REMARKS
CAPE GIRARDEAU SUNNY     70  43  37 N8        30.08S
POPLAR BLUFF   SUNNY     70  42  36 VRB6      30.09F
WEST PLAINS    SUNNY     68  40  35 W5        30.13S

$$



USA.gov is the U.S. government's official web portal to all federal, state and local government web resources and services.